Terminal Aerodrome Forecast
Issued by NWS

Home | Current Version | Previous Version | Text Only | Print | Product List | Glossary On
Versions: 1 2 3 4 5 6 7 8 9 10 11 12 13 14 15 16 17 18
000
FTUS44 KBMX 102300
TAFTCL
TAF
KTCL 102321Z 1100/1124 32006KT P6SM SCT040
     FM110100 00000KT P6SM SCT050
      TEMPO 1109/1112 4SM BR
     FM111500 35005KT P6SM SCT060=

USA.gov is the U.S. government's official web portal to all federal, state and local government web resources and services.